When you browse on this site, cookies collect data to enhance your experience and personalize the content and advertising you see.
Visit our Privacy Policy to learn more. By continuing to use the site, you agree to this use of cookies and data.
  • In Lithuania
  • List of Countries
  • For 7 days
  • Water Temperature
  • Weather Map
  • Weather Widgets
  • user-avatar
    Login

    Hourly Weather Kabul

    Today, 26 May, Tuesday

    Time Temperature Precipitation Wind Pressure Humidity
    00:00 +21°C° 0 mm 1 mps 611 mmHg 40%
    01:00 +20°C° 0 mm 1 mps 611 mmHg 41%
    02:00 +19°C° 0 mm 1 mps 610 mmHg 42%
    03:00 +19°C° 0 mm 1 mps 610 mmHg 43%
    04:00 +18°C° 0 mm 1 mps 610 mmHg 43%
    05:00 +18°C° 0 mm 1 mps 609 mmHg 44%
    06:00 +19°C° 0 mm 1 mps 610 mmHg 39%
    07:00 +21°C° 0 mm 1 mps 611 mmHg 34%
    08:00 +22°C° 0 mm 1 mps 612 mmHg 29%
    09:00 +24°C° 0 mm 1 mps 612 mmHg 26%
    10:00 +25°C° 0 mm 1 mps 612 mmHg 23%
    11:00 +26°C° 0 mm 2 mps 612 mmHg 20%
    12:00 +27°C° 0 mm 2 mps 612 mmHg 19%
    13:00 +28°C° 0 mm 2 mps 613 mmHg 17%
    14:00 +29°C° 0 mm 3 mps 613 mmHg 15%
    15:00 +29°C° 0 mm 4 mps 612 mmHg 15%
    16:00 +29°C° 0 mm 4 mps 612 mmHg 15%
    17:00 +29°C° 0 mm 5 mps 612 mmHg 15%
    18:00 +28°C° 0 mm 4 mps 612 mmHg 19%
    19:00 +26°C° 0 mm 4 mps 612 mmHg 23%
    20:00 +24°C° 0 mm 3 mps 611 mmHg 27%
    21:00 +24°C° 0 mm 2 mps 611 mmHg 29%
    22:00 +23°C° 0 mm 2 mps 611 mmHg 31%
    23:00 +21°C° 0 mm 2 mps 611 mmHg 33%

    Tomorrow, 27 May, Wednesday

    Time Temperature Precipitation Wind Pressure Humidity
    00:00 +20°C° 0 mm 2 mps 610 mmHg 35%
    01:00 +19°C° 0 mm 2 mps 610 mmHg 36%
    02:00 +19°C° 0 mm 2 mps 610 mmHg 38%
    03:00 +18°C° 0 mm 2 mps 609 mmHg 39%
    04:00 +19°C° 0 mm 1 mps 609 mmHg 39%
    05:00 +18°C° 0 mm 1 mps 609 mmHg 40%
    06:00 +20°C° 0 mm 1 mps 609 mmHg 36%
    07:00 +21°C° 0 mm 1 mps 610 mmHg 32%
    08:00 +22°C° 0 mm 1 mps 611 mmHg 28%
    09:00 +24°C° 0 mm 2 mps 611 mmHg 25%
    10:00 +25°C° 0 mm 2 mps 611 mmHg 23%
    11:00 +26°C° 0 mm 3 mps 611 mmHg 20%
    12:00 +27°C° 0 mm 4 mps 611 mmHg 19%
    13:00 +28°C° 0 mm 4 mps 611 mmHg 17%
    14:00 +29°C° 0 mm 5 mps 612 mmHg 16%
    15:00 +29°C° 0 mm 5 mps 611 mmHg 16%
    16:00 +29°C° 0 mm 6 mps 611 mmHg 17%
    17:00 +29°C° 0 mm 7 mps 611 mmHg 17%
    18:00 +27°C° 0 mm 6 mps 610 mmHg 21%
    19:00 +25°C° 0 mm 5 mps 610 mmHg 25%
    20:00 +23°C° 0 mm 4 mps 609 mmHg 30%
    21:00 +22°C° 0 mm 3 mps 609 mmHg 32%
    22:00 +21°C° 0 mm 3 mps 609 mmHg 35%
    23:00 +20°C° 0 mm 2 mps 609 mmHg 38%

    Day after tomorrow, 28 May, Thursday

    Time Temperature Precipitation Wind Pressure Humidity
    00:00 +20°C° 0 mm 2 mps 609 mmHg 40%
    01:00 +19°C° 0 mm 2 mps 609 mmHg 43%
    02:00 +19°C° 0 mm 2 mps 608 mmHg 46%
    03:00 +18°C° 0 mm 2 mps 608 mmHg 47%
    04:00 +19°C° 0 mm 1 mps 607 mmHg 48%
    05:00 +18°C° 0 mm 1 mps 607 mmHg 49%
    06:00 +20°C° 0 mm 1 mps 608 mmHg 44%
    07:00 +21°C° 0 mm 1 mps 609 mmHg 39%
    08:00 +22°C° 0 mm 1 mps 609 mmHg 34%
    09:00 +24°C° 0 mm 1 mps 609 mmHg 31%
    10:00 +25°C° 0 mm 2 mps 610 mmHg 27%
    11:00 +26°C° 0 mm 2 mps 610 mmHg 24%
    12:00 +27°C° 0 mm 2 mps 610 mmHg 22%
    13:00 +28°C° 0 mm 2 mps 610 mmHg 21%
    14:00 +28°C° 0 mm 2 mps 610 mmHg 20%
    15:00 +28°C° 0.1 mm 3 mps 610 mmHg 21%
    16:00 +28°C° 0.1 mm 3 mps 610 mmHg 22%
    17:00 +28°C° 0.1 mm 3 mps 610 mmHg 24%
    18:00 +25°C° 0.2 mm 4 mps 609 mmHg 33%
    19:00 +22°C° 0.2 mm 4 mps 609 mmHg 43%
    20:00 +19°C° 0.2 mm 5 mps 608 mmHg 53%
    21:00 +20°C° 0.1 mm 4 mps 608 mmHg 51%
    22:00 +20°C° 0.1 mm 3 mps 609 mmHg 50%
    23:00 +20°C° 0.1 mm 2 mps 609 mmHg 48%

    29 May, Friday

    Time Temperature Precipitation Wind Pressure Humidity
    00:00 +20°C° 0 mm 2 mps 609 mmHg 48%
    01:00 +20°C° 0 mm 2 mps 608 mmHg 49%
    02:00 +21°C° 0 mm 1 mps 608 mmHg 49%
    03:00 +20°C° 0 mm 1 mps 608 mmHg 50%
    04:00 +20°C° 0 mm 1 mps 608 mmHg 51%
    05:00 +19°C° 0 mm 1 mps 607 mmHg 53%
    06:00 +21°C° 0 mm 1 mps 608 mmHg 48%
    07:00 +22°C° 0 mm 1 mps 609 mmHg 43%
    08:00 +23°C° 0 mm 1 mps 609 mmHg 38%
    09:00 +24°C° 0 mm 1 mps 610 mmHg 35%
    10:00 +25°C° 0 mm 2 mps 610 mmHg 32%
    11:00 +26°C° 0 mm 3 mps 610 mmHg 28%
    12:00 +26°C° 0.2 mm 3 mps 610 mmHg 30%
    13:00 +26°C° 0.2 mm 3 mps 610 mmHg 32%
    14:00 +25°C° 0.2 mm 3 mps 610 mmHg 34%
    15:00 +25°C° 0.2 mm 4 mps 610 mmHg 35%
    16:00 +25°C° 0.2 mm 4 mps 610 mmHg 36%
    17:00 +25°C° 0.2 mm 5 mps 610 mmHg 37%
    18:00 +22°C° 1.2 mm 5 mps 610 mmHg 47%
    19:00 +19°C° 1.2 mm 5 mps 609 mmHg 57%
    20:00 +17°C° 1.2 mm 4 mps 608 mmHg 67%
    21:00 +17°C° 0 mm 4 mps 608 mmHg 65%
    22:00 +18°C° 0 mm 4 mps 609 mmHg 63%
    23:00 +18°C° 0 mm 3 mps 609 mmHg 61%

    30 May, Saturday

    Time Temperature Precipitation Wind Pressure Humidity
    00:00 +18°C° 0 mm 2 mps 608 mmHg 61%
    01:00 +18°C° 0 mm 2 mps 608 mmHg 62%
    02:00 +18°C° 0 mm 1 mps 608 mmHg 63%
    03:00 +18°C° 0 mm 1 mps 607 mmHg 63%
    04:00 +18°C° 0 mm 1 mps 607 mmHg 64%
    05:00 +16°C° 0 mm 1 mps 607 mmHg 65%
    06:00 +19°C° 0 mm 1 mps 608 mmHg 59%
    07:00 +20°C° 0 mm 1 mps 609 mmHg 53%
    08:00 +21°C° 0 mm 1 mps 610 mmHg 47%
    09:00 +22°C° 0 mm 1 mps 610 mmHg 41%
    10:00 +24°C° 0 mm 1 mps 611 mmHg 35%
    11:00 +25°C° 0 mm 1 mps 611 mmHg 29%
    12:00 +26°C° 0.1 mm 1 mps 611 mmHg 28%
    13:00 +26°C° 0.1 mm 1 mps 611 mmHg 27%
    14:00 +27°C° 0.1 mm 1 mps 611 mmHg 25%
    15:00 +27°C° 0.1 mm 2 mps 611 mmHg 27%
    16:00 +26°C° 0.1 mm 2 mps 611 mmHg 29%
    17:00 +26°C° 0.1 mm 3 mps 611 mmHg 31%
    18:00 +25°C° 0 mm 3 mps 611 mmHg 33%
    19:00 +25°C° 0 mm 3 mps 611 mmHg 34%
    20:00 +24°C° 0 mm 2 mps 611 mmHg 36%
    21:00 +23°C° 0 mm 2 mps 611 mmHg 38%
    22:00 +23°C° 0 mm 2 mps 611 mmHg 41%
    23:00 +21°C° 0 mm 2 mps 611 mmHg 44%

    31 May, Sunday

    Time Temperature Precipitation Wind Pressure Humidity
    00:00 +20°C° 0 mm 2 mps 610 mmHg 48%
    01:00 +20°C° 0 mm 1 mps 610 mmHg 52%
    02:00 +20°C° 0 mm 1 mps 609 mmHg 55%
    03:00 +19°C° 0 mm 1 mps 609 mmHg 58%
    04:00 +18°C° 0 mm 1 mps 609 mmHg 61%
    05:00 +18°C° 0 mm 1 mps 609 mmHg 63%
    06:00 +19°C° 0 mm 1 mps 609 mmHg 54%
    07:00 +20°C° 0 mm 1 mps 610 mmHg 45%
    08:00 +22°C° 0 mm 1 mps 611 mmHg 35%
    09:00 +23°C° 0 mm 1 mps 611 mmHg 31%
    10:00 +24°C° 0 mm 1 mps 611 mmHg 26%
    11:00 +25°C° 0 mm 1 mps 612 mmHg 21%
    12:00 +26°C° 0 mm 1 mps 612 mmHg 20%
    13:00 +27°C° 0 mm 1 mps 612 mmHg 18%
    14:00 +28°C° 0 mm 2 mps 612 mmHg 17%
    15:00 +28°C° 0 mm 3 mps 612 mmHg 17%
    16:00 +28°C° 0 mm 4 mps 612 mmHg 18%
    17:00 +28°C° 0 mm 4 mps 612 mmHg 18%
    18:00 +27°C° 0 mm 4 mps 611 mmHg 24%
    19:00 +25°C° 0 mm 4 mps 611 mmHg 31%
    20:00 +23°C° 0 mm 4 mps 610 mmHg 37%
    21:00 +22°C° 0 mm 3 mps 610 mmHg 39%
    22:00 +21°C° 0 mm 2 mps 610 mmHg 40%
    23:00 +20°C° 0 mm 2 mps 610 mmHg 42%
    Show more